Clinton, IA

6:28 AM CDT on May 30, 2017 (GMT -0500)
Clinton Municipal

Weather History for KCWI - January, 2012

Change the Weather History Date:

Sunday, January 1, 2012

  Actual Average Record
Temperature  
Mean Temperature 35 °F -  
Max Temperature 42 °F 28 °F 47 °F (1950)
Min Temperature 28 °F 14 °F -17 °F (1968)
Degree Days  
Heating Degree Days 30    
Moisture  
Dew Point 24 °F    
Average Humidity 67    
Maximum Humidity 87    
Minimum Humidity 52    
Precipitation  
Precipitation 0.03 in - - ()
Sea Level Pressure  
Sea Level Pressure 29.93 in    
Wind  
Wind Speed 24 mph (WNW)    
Max Wind Speed 39 mph    
Max Gust Speed 50 mph    
Visibility 10 miles    
Events      
Averages and records for this station are not official NWS values.
T = Trace of Precipitation, MM = Missing Value Source: NWS Daily Summary

Daily Weather History Graph

Daily Weather History Graph

Search for Another Location

Airport or City:

Trip Planner

Search our weather history database for the weather conditions in past years. The results will help you decide how hot, cold, wet, or windy it might be!

Date:

Astronomy

Jan. 01, 2012 Rise Set
Actual Time 7:28 AM CST 4:40 PM CST
Civil Twilight 6:57 AM CST 5:12 PM CST
Nautical Twilight 6:22 AM CST 5:47 PM CST
Astronomical Twilight 5:48 AM CST 6:21 PM CST
Moon 11:32 AM CST (1/1) 12:20 AM CST (1/1)
Length of Visible Light 10h 14m
Length of Day
9h 11m
First Quarter, 55% of the Moon is Illuminated
Jan 1
First Quarter
Jan 9
Full
Jan 16
Last Quarter
Jan 23
New
Jan 30
First Quarter

Hourly Weather History & Observations

Time (CST) Temp. Windchill Dew Point Humidity Pressure Visibility Wind Dir Wind Speed Gust Speed Precip Events Conditions
12:15 AM 42.8 °F 35.8 °F 33.8 °F 70% 29.54 in 10.0 mi SSE 13.8 mph - N/A   Partly Cloudy
12:35 AM 42.8 °F 35.4 °F 33.8 °F 70% 29.52 in 10.0 mi SSE 15.0 mph 20.7 mph N/A   Clear
12:55 AM 42.8 °F 36.2 °F 33.8 °F 70% 29.51 in 10.0 mi South 12.7 mph - N/A   Clear
1:15 AM 41.0 °F 33.9 °F 33.8 °F 76% 29.51 in 10.0 mi South 12.7 mph - N/A   Clear
1:35 AM 39.2 °F 33.0 °F 33.8 °F 81% 29.52 in 10.0 mi SSW 9.2 mph - N/A   Mostly Cloudy
2:15 AM 41.0 °F 33.5 °F 33.8 °F 76% 29.53 in 10.0 mi WSW 13.8 mph - N/A   Overcast
2:35 AM 39.2 °F 31.6 °F 33.8 °F 81% 29.54 in 10.0 mi West 12.7 mph - N/A   Overcast
2:55 AM 41.0 °F 31.6 °F 33.8 °F 76% 29.56 in 10.0 mi West 20.7 mph 25.3 mph N/A   Overcast
3:15 AM 41.0 °F 31.9 °F 33.8 °F 76% 29.59 in 10.0 mi West 19.6 mph 26.5 mph N/A   Overcast
3:35 AM 39.2 °F 29.8 °F 35.6 °F 87% 29.60 in 10.0 mi West 18.4 mph - 0.01 in   Overcast
3:55 AM 41.0 °F 32.2 °F 35.6 °F 81% 29.62 in 10.0 mi WNW 18.4 mph - 0.02 in   Overcast
4:15 AM 41.0 °F 31.4 °F 35.6 °F 81% 29.64 in 9.0 mi NW 21.9 mph 28.8 mph 0.01 in   Overcast
4:35 AM 39.2 °F 28.0 °F 33.8 °F 81% 29.67 in 10.0 mi NW 26.5 mph 35.7 mph 0.01 in   Overcast
4:55 AM 37.4 °F 24.8 °F 32.0 °F 81% 29.70 in 10.0 mi NW 31.1 mph 43.7 mph 0.01 in   Overcast
5:15 AM 37.4 °F 25.2 °F 30.2 °F 75% 29.73 in 10.0 mi NW 28.8 mph 42.6 mph N/A   Overcast
5:35 AM 37.4 °F 25.0 °F 30.2 °F 75% 29.76 in 10.0 mi NW 29.9 mph 41.4 mph N/A   Overcast
5:55 AM 37.4 °F 25.0 °F 30.2 °F 75% 29.79 in 10.0 mi NW 29.9 mph 41.4 mph N/A   Overcast
6:15 AM 37.4 °F 25.4 °F 30.2 °F 75% 29.81 in 10.0 mi NW 27.6 mph 36.8 mph N/A   Overcast
6:35 AM 37.4 °F 25.9 °F 30.2 °F 75% 29.83 in 10.0 mi NW 25.3 mph 40.3 mph N/A   Overcast
6:55 AM 35.6 °F 24.0 °F 30.2 °F 81% 29.84 in 10.0 mi WNW 23.0 mph 29.9 mph N/A   Overcast
7:15 AM 35.6 °F 23.4 °F 28.4 °F 75% 29.87 in 10.0 mi WNW 25.3 mph 34.5 mph N/A   Overcast
7:35 AM 33.8 °F 20.3 °F 26.6 °F 75% 29.90 in 10.0 mi WNW 28.8 mph 35.7 mph N/A   Overcast
7:55 AM 32.0 °F 18.6 °F 26.6 °F 80% 29.92 in 10.0 mi WNW 25.3 mph 31.1 mph N/A   Overcast
8:15 AM 32.0 °F 18.6 °F 24.8 °F 75% 29.94 in 10.0 mi NW 25.3 mph 35.7 mph N/A   Scattered Clouds
8:35 AM 32.0 °F 18.1 °F 24.8 °F 75% 29.96 in 10.0 mi WNW 27.6 mph 36.8 mph N/A   Clear
9:15 AM 32.0 °F 18.4 °F 24.8 °F 75% 29.98 in 10.0 mi WNW 26.5 mph 38.0 mph N/A   Partly Cloudy
9:35 AM 32.0 °F 18.1 °F 23.0 °F 69% 30.00 in 10.0 mi WNW 27.6 mph 36.8 mph N/A   Clear
9:55 AM 33.8 °F 19.6 °F 23.0 °F 65% 30.01 in 10.0 mi WNW 32.2 mph 40.3 mph N/A   Clear
10:15 AM 33.8 °F 20.1 °F 23.0 °F 65% 30.01 in 10.0 mi WNW 29.9 mph 39.1 mph N/A   Clear
10:35 AM 33.8 °F 20.3 °F 21.2 °F 60% 30.01 in 10.0 mi WNW 28.8 mph 42.6 mph N/A   Clear
10:55 AM 33.8 °F 19.6 °F 21.2 °F 60% 30.02 in 10.0 mi WNW 32.2 mph 49.5 mph N/A   Scattered Clouds
11:15 AM 33.8 °F 18.6 °F 19.4 °F 56% 30.02 in 10.0 mi WNW 38.0 mph 46.0 mph N/A   Scattered Clouds
11:35 AM 32.0 °F 16.7 °F 19.4 °F 60% 30.03 in 10.0 mi WNW 34.5 mph 43.7 mph N/A   Mostly Cloudy
11:55 AM 32.0 °F 17.2 °F 19.4 °F 60% 30.02 in 10.0 mi WNW 32.2 mph 40.3 mph N/A   Overcast
12:15 PM 32.0 °F 17.6 °F 19.4 °F 60% 30.02 in 10.0 mi WNW 29.9 mph 42.6 mph N/A   Overcast
12:35 PM 32.0 °F 16.5 °F 19.4 °F 60% 30.03 in 10.0 mi WNW 35.7 mph 43.7 mph N/A   Overcast
12:55 PM 32.0 °F 17.4 °F 19.4 °F 60% 30.04 in 10.0 mi WNW 31.1 mph 43.7 mph N/A   Overcast
1:15 PM 32.0 °F 17.2 °F 17.6 °F 55% 30.04 in 10.0 mi WNW 32.2 mph 42.6 mph N/A   Overcast
1:35 PM 32.0 °F 16.2 °F 17.6 °F 55% 30.05 in 10.0 mi WNW 38.0 mph 43.7 mph N/A   Overcast
1:55 PM 32.0 °F 17.9 °F 17.6 °F 55% 30.06 in 10.0 mi WNW 28.8 mph 42.6 mph N/A   Overcast
2:15 PM 33.8 °F 19.2 °F 17.6 °F 52% 30.07 in 10.0 mi WNW 34.5 mph 44.9 mph N/A   Overcast
2:35 PM 32.0 °F 17.6 °F 17.6 °F 55% 30.08 in 10.0 mi WNW 29.9 mph 42.6 mph N/A   Overcast
2:55 PM 32.0 °F 16.0 °F 17.6 °F 55% 30.09 in 10.0 mi WNW 39.1 mph 47.2 mph N/A   Overcast
3:15 PM 30.2 °F 13.9 °F 17.6 °F 60% 30.11 in 10.0 mi WNW 36.8 mph 44.9 mph N/A   Overcast
3:35 PM 30.2 °F 13.9 °F 17.6 °F 60% 30.13 in 10.0 mi WNW 36.8 mph 43.7 mph N/A   Overcast
4:15 PM 30.2 °F 14.1 °F 17.6 °F 60% 30.16 in 10.0 mi WNW 35.7 mph 44.9 mph N/A   Overcast
4:35 PM 30.2 °F 14.7 °F 17.6 °F 60% 30.16 in 10.0 mi WNW 32.2 mph 41.4 mph N/A   Overcast
4:55 PM 30.2 °F 14.7 °F 17.6 °F 60% 30.16 in 10.0 mi WNW 32.2 mph 40.3 mph N/A   Overcast
5:15 PM 30.2 °F 14.7 °F 17.6 °F 60% 30.17 in 10.0 mi WNW 32.2 mph 40.3 mph N/A   Overcast
5:35 PM 30.2 °F 14.3 °F 15.8 °F 55% 30.18 in 10.0 mi WNW 34.5 mph 44.9 mph N/A   Overcast
5:55 PM 30.2 °F 14.9 °F 17.6 °F 60% 30.19 in 10.0 mi WNW 31.1 mph 35.7 mph N/A   Overcast
6:15 PM 30.2 °F 14.5 °F 17.6 °F 60% 30.19 in 10.0 mi WNW 33.4 mph 42.6 mph N/A   Overcast
6:35 PM 30.2 °F 14.5 °F 17.6 °F 60% 30.20 in 10.0 mi WNW 33.4 mph 43.7 mph N/A   Overcast
6:55 PM 30.2 °F 15.4 °F 17.6 °F 60% 30.20 in 10.0 mi WNW 28.8 mph 35.7 mph N/A   Overcast
7:15 PM 30.2 °F 14.5 °F 17.6 °F 60% 30.21 in 10.0 mi WNW 33.4 mph 42.6 mph N/A   Overcast
7:35 PM 30.2 °F 14.1 °F 17.6 °F 60% 30.21 in 10.0 mi WNW 35.7 mph 41.4 mph N/A   Overcast
7:55 PM 28.4 °F 13.0 °F 17.6 °F 64% 30.21 in 10.0 mi WNW 28.8 mph 42.6 mph N/A   Overcast
8:15 PM 28.4 °F 12.0 °F 17.6 °F 64% 30.21 in 10.0 mi WNW 33.4 mph 42.6 mph N/A   Overcast
8:35 PM 28.4 °F 12.7 °F 15.8 °F 59% 30.21 in 10.0 mi NW 29.9 mph 38.0 mph N/A   Overcast
8:55 PM 28.4 °F 13.5 °F 17.6 °F 64% 30.21 in 10.0 mi NW 26.5 mph 34.5 mph N/A   Overcast
9:15 PM 28.4 °F 13.3 °F 15.8 °F 59% 30.22 in 10.0 mi NW 27.6 mph 39.1 mph N/A   Overcast
9:35 PM 26.6 °F 10.0 °F 12.2 °F 55% 30.22 in 10.0 mi NW 31.1 mph 43.7 mph N/A   Overcast
9:55 PM 26.6 °F 9.3 °F 12.2 °F 55% 30.22 in 10.0 mi WNW 34.5 mph 40.3 mph N/A   Overcast
10:15 PM 26.6 °F 11.4 °F 12.2 °F 55% 30.22 in 10.0 mi WNW 25.3 mph 36.8 mph N/A   Overcast
10:35 PM 26.6 °F 10.8 °F 14.0 °F 59% 30.22 in 10.0 mi WNW 27.6 mph 34.5 mph N/A   Overcast
11:15 PM 26.6 °F 11.1 °F 12.2 °F 55% 30.22 in 10.0 mi NW 26.5 mph 38.0 mph N/A   Overcast
11:35 PM 24.8 °F 10.0 °F 14.0 °F 64% 30.21 in 10.0 mi WNW 21.9 mph 32.2 mph N/A   Overcast